STARLINK-5943, 56016

Orbit data source: Space-Track

STARLINK-5943, 56016 is a payload satellite owned by SpaceX/Seattle (US) in LEO that was launched on Fri, 24 Mar 2023 UTC via an FALCON 9 launch vehicle from the Air Force Eastern Test Range (AFETR). Payload-class satellites include a variety of spacecraft equipped with specific instruments for various scientific and technological missions. These include communications satellites like Starlink; space stations such as the ISS; scientific satellites like the Hubble; Earth observation satellites from companies like Planet Labs, Umbra, and HawkEye 360; GPS; miniature CubeSats for education and research; and military/defense satellites.

Loading next visibility...
Identifier
56016, 2023-042AG
Orbit
LEO
Country
Flag of USUS
Related business
Manufacturer
SpaceX/Seattle
Mission
Operational Commercial Communications
Bus & Motor
STARLINK, Unknown motor
Mass
305 kg wet, ~290 kg dry
Launch date (UTC)
2023-03-24 (3 years ago)
Launch vehicle
FALCON 9
Launch site
Air Force Eastern Test Range (AFETR)
Object type
Payload
Rocket body
Debris
Shape & HBR
Box + 1 Pan, 10.1 m
Radar Cross Section
11.087 m², Large (>1 m²)

Expand to show TLE details & history
Last TLE update: 2 days ago

TLE from 2 days ago
0 STARLINK-5943
1 56016U 23042AG  26171.09658028  .00002707  00000-0  10784-3 0  9993
2 56016  43.0017 187.1934 0001261 293.4045  66.6674 15.27591447178696
Epoch: 2026-06-20T02:19Z
TLE epoch observation values (Epoch: 2026-06-20T02:19:04.536Z)
Latitude
-0.00001°
Longitude
-115.89161°
Altitude
482.448 km
Speed
7.626 km/s
True Right ascension
12h 28m 46s
True Declination
0° 00' 00"
Sunlit
Object was in daylight at epoch
Visualization orbit readout
Latitude
Unknown
Longitude
Unknown
Altitude
Unknown
Speed
Unknown
Apparent Right ascension
Unknown
Apparent Declination
Unknown
Sunlit
N/A
Visualization observer readout
Local Sidereal Time
21:27:25
Azimuth
Unknown
Elevation
Unknown
Doppler factor
Unknown
Orbital elements
Apogee altitude
485.825 km
Perigee altitude
484.094 km
Semi-major axis
6,863.097 km
Eccentricity
0.00013
Inclination
43.0017°
RAAN
187.1934°
Arg. of periapsis
293.4045°
True anomaly
66.68067°
Mean anomaly
66.6674°
Eccentric anomaly
66.67403°
Mean motion
3.81736 °/min
Orbital period
94.31 mins
BSTAR
0.00010784
Loading maneuver chart data...
Computing Atmospheric mass density...
Loading historical data...
Loading historical data...
Loading historical data...
Loading historical data...
Loading historical data...
Loading historical data...
Loading historical data...

Documentation

Showing up to 5 results
|